TimeCDT,TemperatureF,Dew PointF,Humidity,Sea Level PressureIn,VisibilityMPH,Wind Direction,Wind SpeedMPH,Gust SpeedMPH,PrecipitationIn,Events,Conditions,WindDirDegrees,DateUTC
12:52 AM,50.0,48.9,96,30.33,4.0,Calm,Calm,-,0.03,Rain,Light Rain,0,2013-04-27 05:52:00
1:52 AM,50.0,48.9,96,30.30,4.0,SE,3.5,-,0.14,Rain,Light Rain,130,2013-04-27 06:52:00
2:37 AM,50.0,48.2,94,30.25,4.0,ESE,10.4,-,0.04,Rain,Light Rain,110,2013-04-27 07:37:00
2:52 AM,50.0,48.9,96,30.26,4.0,East,5.8,-,0.06,Rain,Rain,90,2013-04-27 07:52:00
3:03 AM,50.0,48.2,94,30.25,5.0,East,5.8,-,0.00,Rain,Light Rain,90,2013-04-27 08:03:00
3:14 AM,50.0,48.2,94,30.25,6.0,East,5.8,-,0.00,Rain,Light Rain,100,2013-04-27 08:14:00
3:52 AM,50.0,48.9,96,30.24,8.0,East,9.2,-,0.00,,Overcast,80,2013-04-27 08:52:00
4:27 AM,51.8,48.2,88,30.23,10.0,ENE,9.2,-,0.01,,Overcast,60,2013-04-27 09:27:00
4:40 AM,51.8,48.2,88,30.23,10.0,NE,10.4,-,0.01,,Overcast,50,2013-04-27 09:40:00
4:52 AM,51.1,48.9,92,30.25,8.0,NE,5.8,-,0.01,Rain,Light Rain,50,2013-04-27 09:52:00
5:52 AM,51.1,48.9,92,30.22,3.0,ESE,8.1,-,0.15,Rain,Heavy Rain,120,2013-04-27 10:52:00
6:52 AM,52.0,50.0,93,30.21,4.0,SE,8.1,-,0.13,Rain,Rain,130,2013-04-27 11:52:00
7:16 AM,51.8,50.0,94,30.19,2.5,SE,15.0,-,0.07,Rain,Rain,130,2013-04-27 12:16:00
7:37 AM,51.8,50.0,94,30.18,3.0,SSE,10.4,-,0.12,Rain,Light Rain,150,2013-04-27 12:37:00
7:52 AM,52.0,51.1,97,30.19,4.0,SE,10.4,-,0.15,Rain,Light Rain,140,2013-04-27 12:52:00
8:25 AM,53.6,50.0,88,30.21,1.8,Calm,Calm,-,0.04,Rain,Rain,0,2013-04-27 13:25:00
8:41 AM,51.8,51.8,100,30.21,2.5,Calm,Calm,-,0.08,Rain,Rain,0,2013-04-27 13:41:00
8:52 AM,52.0,51.1,97,30.20,3.0,Calm,Calm,-,0.10,Rain,Rain,0,2013-04-27 13:52:00
9:52 AM,53.1,52.0,96,30.19,3.0,SE,6.9,-,0.09,Rain,Rain,140,2013-04-27 14:52:00
10:01 AM,53.6,51.8,94,30.19,2.0,SE,4.6,-,0.03,Rain,Heavy Rain,140,2013-04-27 15:01:00
10:52 AM,53.1,52.0,96,30.19,2.5,Variable,3.5,-,0.17,Rain,Rain,0,2013-04-27 15:52:00
11:52 AM,55.0,54.0,96,30.17,10.0,East,4.6,-,0.05,,Overcast,100,2013-04-27 16:52:00
12:20 PM,55.4,53.6,94,30.15,10.0,SSE,6.9,-,N/A,,Overcast,150,2013-04-27 17:20:00
12:52 PM,57.9,55.0,90,30.13,10.0,SSE,9.2,-,0.00,Rain,Light Rain,150,2013-04-27 17:52:00
1:52 PM,59.0,55.9,90,30.12,10.0,SSE,10.4,-,0.00,,Overcast,160,2013-04-27 18:52:00
2:45 PM,59.0,55.4,88,30.10,10.0,SSE,10.4,16.1,0.00,,Overcast,160,2013-04-27 19:45:00
2:52 PM,59.0,55.9,90,30.09,9.0,SSE,10.4,-,0.00,,Overcast,160,2013-04-27 19:52:00
3:52 PM,57.9,55.9,93,30.06,10.0,SSE,8.1,16.1,0.00,,Overcast,150,2013-04-27 20:52:00
4:52 PM,60.1,57.0,90,30.02,10.0,SSE,11.5,-,N/A,,Overcast,150,2013-04-27 21:52:00
5:36 PM,60.8,57.2,88,30.00,10.0,SSE,10.4,16.1,N/A,,Overcast,150,2013-04-27 22:36:00
5:52 PM,60.1,57.0,90,30.00,10.0,SSE,10.4,-,0.00,Rain-Thunderstorm,Light Rain,150,2013-04-27 22:52:00
6:08 PM,60.8,57.2,88,29.99,1.8,ESE,10.4,-,0.06,Rain-Thunderstorm,Heavy Thunderstorms and Rain,120,2013-04-27 23:08:00
6:17 PM,60.8,57.2,88,30.00,3.0,East,6.9,-,0.07,Rain-Thunderstorm,Light Thunderstorms and Rain,100,2013-04-27 23:17:00
6:24 PM,59.0,57.2,94,30.00,5.0,ENE,5.8,-,0.08,Rain-Thunderstorm,Light Thunderstorms and Rain,70,2013-04-27 23:24:00
6:42 PM,59.0,57.2,94,30.01,1.8,North,15.0,-,0.22,Rain-Thunderstorm,Heavy Thunderstorms and Rain,350,2013-04-27 23:42:00
6:52 PM,57.9,57.0,97,29.99,1.5,NE,10.4,-,0.37,Rain-Thunderstorm,Heavy Thunderstorms and Rain,40,2013-04-27 23:52:00
7:03 PM,59.0,57.2,94,29.96,1.8,ENE,12.7,-,0.11,Rain-Thunderstorm,Heavy Thunderstorms and Rain,70,2013-04-28 00:03:00
7:10 PM,59.0,57.2,94,29.98,2.0,East,11.5,-,0.17,Rain-Thunderstorm,Heavy Thunderstorms and Rain,80,2013-04-28 00:10:00
7:27 PM,59.0,57.2,94,29.97,1.0,NE,12.7,-,0.50,Rain-Thunderstorm,Heavy Thunderstorms and Rain,50,2013-04-28 00:27:00
7:32 PM,59.0,57.2,94,29.96,0.8,East,15.0,-,0.74,Rain-Thunderstorm,Heavy Thunderstorms and Rain,90,2013-04-28 00:32:00
7:39 PM,59.0,57.2,94,29.95,1.0,East,10.4,23.0,0.82,Rain-Thunderstorm,Heavy Thunderstorms and Rain,100,2013-04-28 00:39:00
7:42 PM,59.0,57.2,94,29.95,2.0,ESE,11.5,-,0.83,Rain-Thunderstorm,Light Thunderstorms and Rain,110,2013-04-28 00:42:00
7:50 PM,59.0,57.2,94,29.95,6.0,ESE,11.5,-,0.84,Rain-Thunderstorm,Light Thunderstorms and Rain,120,2013-04-28 00:50:00
7:52 PM,59.0,57.9,96,29.95,6.0,SE,9.2,-,0.84,Rain-Thunderstorm,Light Thunderstorms and Rain,140,2013-04-28 00:52:00
8:31 PM,59.0,57.2,94,29.99,2.5,SE,6.9,-,0.12,Rain-Thunderstorm,Heavy Thunderstorms and Rain,140,2013-04-28 01:31:00
8:52 PM,59.0,57.9,96,29.97,2.5,ESE,15.0,-,0.24,Rain-Thunderstorm,Heavy Thunderstorms and Rain,120,2013-04-28 01:52:00
9:04 PM,59.0,57.2,94,29.96,4.0,ESE,10.4,-,0.02,Rain-Thunderstorm,Thunderstorms and Rain,110,2013-04-28 02:04:00
9:52 PM,59.0,57.9,96,29.94,4.0,ESE,9.2,-,0.10,Rain-Thunderstorm,Thunderstorms and Rain,120,2013-04-28 02:52:00
10:01 PM,59.0,57.2,94,29.95,7.0,SE,10.4,-,0.00,Rain-Thunderstorm,Light Thunderstorms and Rain,140,2013-04-28 03:01:00
10:49 PM,57.2,55.4,94,29.94,2.5,ESE,8.1,-,0.16,Rain-Thunderstorm,Rain,120,2013-04-28 03:49:00
11:31 PM,57.2,55.4,94,29.93,8.0,East,5.8,-,0.02,Rain,Light Rain,100,2013-04-28 04:31:00
11:39 PM,57.2,55.4,94,29.92,10.0,ENE,9.2,-,0.02,Rain,Light Rain,60,2013-04-28 04:39:00
11:52 PM,57.9,57.0,97,29.94,4.0,SE,4.6,-,0.06,Rain,Light Rain,130,2013-04-28 04:52:00
11:59 PM,57.2,57.2,100,29.95,2.5,South,6.9,-,0.05,Rain,Heavy Rain,170,2013-04-28 04:59:00